This is the latest recevied weather packets stored in our database for station/object KD4PMP. If no packets are shown the sender has not sent any weather packets the latest 10 day(s).
| Time | Temp. | Humidity | Pressure | Rain* | Wind** | Luminosity | Snow |
|---|---|---|---|---|---|---|---|
| 1777831812 | 18.89° C | 39% | 1019.3 hPa | 0 mm | - | - | - |
| 1777831212 | 18.33° C | 40% | 1019.6 hPa | 0 mm | - | - | - |
| 1777830612 | 18.33° C | 41% | 1019.7 hPa | 0 mm | - | - | - |
| 1777830011 | 17.78° C | 41% | 1019.9 hPa | 0 mm | - | - | - |
| 1777829411 | 17.22° C | 41% | 1020 hPa | 0 mm | - | - | - |
| 1777828811 | 17.78° C | 40% | 1020.1 hPa | 0 mm | - | - | - |
| 1777828211 | 17.78° C | 46% | 1020.3 hPa | 0 mm | - | - | - |
| 1777827610 | 17.22° C | 46% | 1020.5 hPa | 0 mm | - | - | - |
| 1777827010 | 17.22° C | 44% | 1020.6 hPa | 0 mm | - | - | - |
| 1777826409 | 16.67° C | 42% | 1020.7 hPa | 0 mm | - | - | - |
| 1777825809 | 16.67° C | 44% | 1020.8 hPa | 0 mm | - | - | - |
| 1777825209 | 16.67° C | 46% | 1020.9 hPa | 0 mm | - | - | - |
| 1777824609 | 16.67° C | 41% | 1021.1 hPa | 0 mm | - | - | - |
| 1777824008 | 16.11° C | 45% | 1021.1 hPa | 0 mm | - | - | - |
| 1777823408 | 16.11° C | 44% | 1021.2 hPa | 0 mm | - | - | - |
| 1777822808 | 15.56° C | 45% | 1020.9 hPa | 0 mm | - | - | - |
| 1777822208 | 15° C | 46% | 1021.2 hPa | 0 mm | - | - | - |
| 1777821608 | 15° C | 43% | 1021.4 hPa | 0 mm | - | - | - |
| 1777821007 | 15° C | 45% | 1021.4 hPa | 0 mm | - | - | - |
| 1777820407 | 14.44° C | 46% | 1021.4 hPa | 0 mm | - | - | - |
| 1777819806 | 14.44° C | 51% | 1021.4 hPa | 0 mm | - | - | - |
| 1777819206 | 13.89° C | 56% | 1021.4 hPa | 0 mm | - | - | - |
| 1777818606 | 13.33° C | 59% | 1021.4 hPa | 0 mm | - | - | - |
| 1777818005 | 12.78° C | 67% | 1021.3 hPa | 0 mm | - | - | - |
| 1777817405 | 12.22° C | 76% | 1021.3 hPa | 0 mm | - | - | - |
* Rain latest hour (hover to see other rain measurements)
** Current wind speed in m/s (hover to see current wind gust speed)